Location: Asheville, NC
(35.6000°N, 82.5500°W)
Time: 00:27:10
(UTC-04:00)

Vanguard 2 - Pass Details

Date: 17 March 2018
Orbit: 554 x 2939 km, 32.9° (Epoch: 24 June)

Event Time Altitude Azimuth Distance (km) Brightness Sun altitude
Rises 10:57:48 0° 241° (WSW) 4,953 11.5 37.5°
Reaches altitude 10° 11:00:37 10° 238° (WSW) 4,235 11.2 38.0°
Maximum altitude 11:12:56 67° 159° (SSE) 2,676 11.5 40.0°
Drops below altitude 10° 11:30:21 10° 82° (E) 5,767 12.5 42.6°
Sets 11:34:56 0° 80° (E) 6,776 12.7 43.3°
